When you browse on this site, cookies collect data to enhance your experience and personalize the content and advertising you see.
Visit our Privacy Policy to learn more. By continuing to use the site, you agree to this use of cookies and data.
  • In Slovakia
  • List of Countries
  • For 7 days
  • Water Temperature
  • Satellite Maps
  • Weather Map
  • Weather Widgets
  • user-avatar
    Login

    Hourly Weather Neuquén

    Today, 16 January, Wednesday

    Time Temperature Precipitation Wind Pressure Humidity
    00:00 +23°C° 0 mm 11 mps 730 mmHg 18%
    01:00 +22°C° 0 mm 11 mps 730 mmHg 21%
    02:00 +22°C° 0 mm 11 mps 730 mmHg 25%
    03:00 +21°C° 0 mm 12 mps 730 mmHg 29%
    04:00 +19°C° 0 mm 12 mps 731 mmHg 33%
    05:00 +21°C° 0 mm 12 mps 731 mmHg 34%
    06:00 +21°C° 0 mm 12 mps 731 mmHg 34%
    07:00 +22°C° 0 mm 9 mps 732 mmHg 32%
    08:00 +23°C° 0 mm 10 mps 732 mmHg 28%
    09:00 +24°C° 0 mm 10 mps 733 mmHg 25%
    10:00 +26°C° 0 mm 10 mps 733 mmHg 22%
    11:00 +27°C° 0 mm 10 mps 733 mmHg 19%
    12:00 +28°C° 0 mm 9 mps 733 mmHg 16%
    13:00 +29°C° 0 mm 9 mps 733 mmHg 14%
    14:00 +29°C° 0 mm 9 mps 733 mmHg 13%
    15:00 +31°C° 0 mm 9 mps 733 mmHg 12%
    16:00 +31°C° 0 mm 8 mps 734 mmHg 11%
    17:00 +29°C° 0 mm 7 mps 734 mmHg 12%
    18:00 +28°C° 0 mm 5 mps 735 mmHg 13%
    19:00 +27°C° 0 mm 4 mps 735 mmHg 14%
    20:00 +26°C° 0 mm 4 mps 736 mmHg 18%
    21:00 +26°C° 0 mm 4 mps 737 mmHg 22%
    22:00 +25°C° 0 mm 4 mps 738 mmHg 26%
    23:00 +22°C° 0 mm 5 mps 738 mmHg 27%

    Tomorrow, 17 January, Thursday

    Time Temperature Precipitation Wind Pressure Humidity
    00:00 +21°C° 0 mm 7 mps 739 mmHg 29%
    01:00 +20°C° 0 mm 8 mps 739 mmHg 30%
    02:00 +18°C° 0 mm 7 mps 740 mmHg 35%
    03:00 +19°C° 0 mm 6 mps 740 mmHg 40%
    04:00 +17°C° 0 mm 5 mps 741 mmHg 45%
    05:00 +17°C° 0 mm 6 mps 741 mmHg 42%
    06:00 +19°C° 0 mm 6 mps 742 mmHg 40%
    07:00 +20°C° 0 mm 6 mps 742 mmHg 37%
    08:00 +21°C° 0 mm 6 mps 742 mmHg 33%
    09:00 +23°C° 0 mm 6 mps 742 mmHg 29%
    10:00 +24°C° 0 mm 6 mps 742 mmHg 25%
    11:00 +26°C° 0 mm 6 mps 742 mmHg 23%
    12:00 +27°C° 0 mm 6 mps 741 mmHg 22%
    13:00 +28°C° 0 mm 6 mps 741 mmHg 20%
    14:00 +28°C° 0 mm 6 mps 740 mmHg 19%
    15:00 +29°C° 0 mm 6 mps 739 mmHg 18%
    16:00 +29°C° 0 mm 6 mps 739 mmHg 17%
    17:00 +29°C° 0 mm 6 mps 739 mmHg 17%
    18:00 +28°C° 0 mm 5 mps 739 mmHg 17%
    19:00 +27°C° 0 mm 5 mps 739 mmHg 17%
    20:00 +27°C° 0 mm 5 mps 739 mmHg 17%
    21:00 +26°C° 0 mm 6 mps 739 mmHg 17%
    22:00 +24°C° 0 mm 6 mps 739 mmHg 17%
    23:00 +24°C° 0 mm 6 mps 739 mmHg 17%

    Day after tomorrow, 18 January, Friday

    Time Temperature Precipitation Wind Pressure Humidity
    00:00 +23°C° 0 mm 5 mps 739 mmHg 17%
    01:00 +22°C° 0 mm 5 mps 739 mmHg 17%
    02:00 +22°C° 0 mm 4 mps 738 mmHg 20%
    03:00 +21°C° 0 mm 4 mps 738 mmHg 23%
    04:00 +20°C° 0 mm 3 mps 738 mmHg 26%
    05:00 +22°C° 0 mm 4 mps 738 mmHg 24%
    06:00 +23°C° 0 mm 4 mps 738 mmHg 22%
    07:00 +25°C° 0 mm 5 mps 738 mmHg 20%
    08:00 +27°C° 0 mm 5 mps 738 mmHg 18%
    09:00 +28°C° 0 mm 6 mps 738 mmHg 16%
    10:00 +29°C° 0 mm 6 mps 738 mmHg 14%
    11:00 +30°C° 0 mm 6 mps 737 mmHg 13%
    12:00 +32°C° 0 mm 6 mps 737 mmHg 13%
    13:00 +33°C° 0 mm 7 mps 736 mmHg 12%
    14:00 +33°C° 0 mm 6 mps 736 mmHg 12%
    15:00 +33°C° 0 mm 6 mps 735 mmHg 12%
    16:00 +34°C° 0 mm 6 mps 734 mmHg 12%
    17:00 +33°C° 0 mm 6 mps 734 mmHg 13%
    18:00 +32°C° 0 mm 6 mps 734 mmHg 14%
    19:00 +30°C° 0 mm 5 mps 734 mmHg 15%
    20:00 +29°C° 0 mm 5 mps 734 mmHg 16%
    21:00 +28°C° 0 mm 5 mps 735 mmHg 18%
    22:00 +28°C° 0 mm 6 mps 735 mmHg 19%
    23:00 +27°C° 0 mm 6 mps 734 mmHg 24%

    19 January, Saturday

    Time Temperature Precipitation Wind Pressure Humidity
    00:00 +26°C° 0 mm 6 mps 734 mmHg 29%
    01:00 +26°C° 0 mm 6 mps 734 mmHg 34%
    02:00 +24°C° 0 mm 6 mps 734 mmHg 41%
    03:00 +23°C° 0 mm 5 mps 733 mmHg 47%
    04:00 +23°C° 0 mm 5 mps 733 mmHg 54%
    05:00 +23°C° 0 mm 6 mps 734 mmHg 51%
    06:00 +24°C° 0 mm 6 mps 734 mmHg 49%
    07:00 +26°C° 0 mm 7 mps 734 mmHg 47%
    08:00 +27°C° 0 mm 7 mps 734 mmHg 42%
    09:00 +29°C° 0 mm 7 mps 733 mmHg 38%
    10:00 +32°C° 0 mm 7 mps 733 mmHg 33%
    11:00 +33°C° 0 mm 6 mps 732 mmHg 30%
    12:00 +35°C° 0 mm 5 mps 732 mmHg 26%
    13:00 +36°C° 0 mm 5 mps 731 mmHg 22%
    14:00 +37°C° 0 mm 4 mps 731 mmHg 20%
    15:00 +37°C° 0 mm 4 mps 730 mmHg 18%
    16:00 +38°C° 0 mm 3 mps 729 mmHg 15%
    17:00 +37°C° 0 mm 2 mps 729 mmHg 16%
    18:00 +36°C° 0 mm 2 mps 729 mmHg 16%
    19:00 +34°C° 0 mm 1 mps 729 mmHg 17%
    20:00 +34°C° 0 mm 1 mps 730 mmHg 17%
    21:00 +33°C° 0 mm 1 mps 730 mmHg 18%
    22:00 +32°C° 0 mm 1 mps 730 mmHg 19%
    23:00 +31°C° 0 mm 2 mps 730 mmHg 20%

    20 January, Sunday

    Time Temperature Precipitation Wind Pressure Humidity
    00:00 +30°C° 0 mm 4 mps 730 mmHg 20%
    01:00 +30°C° 0 mm 6 mps 730 mmHg 21%
    02:00 +29°C° 0 mm 6 mps 729 mmHg 21%
    03:00 +28°C° 0 mm 5 mps 729 mmHg 21%
    04:00 +27°C° 0 mm 5 mps 729 mmHg 21%
    05:00 +28°C° 0 mm 5 mps 730 mmHg 19%
    06:00 +30°C° 0 mm 6 mps 730 mmHg 17%
    07:00 +32°C° 0 mm 7 mps 730 mmHg 15%
    08:00 +33°C° 0 mm 6 mps 730 mmHg 14%
    09:00 +35°C° 0 mm 5 mps 730 mmHg 14%
    10:00 +36°C° 0 mm 5 mps 729 mmHg 13%
    11:00 +37°C° 0 mm 4 mps 729 mmHg 12%
    12:00 +38°C° 0 mm 4 mps 728 mmHg 12%
    13:00 +38°C° 0 mm 4 mps 727 mmHg 11%
    14:00 +40°C° 0 mm 5 mps 727 mmHg 10%
    15:00 +41°C° 0 mm 5 mps 726 mmHg 8%
    16:00 +42°C° 0 mm 5 mps 726 mmHg 7%
    17:00 +40°C° 0 mm 7 mps 726 mmHg 8%
    18:00 +39°C° 0 mm 9 mps 726 mmHg 10%
    19:00 +37°C° 0 mm 11 mps 727 mmHg 11%
    20:00 +36°C° 0 mm 11 mps 727 mmHg 14%
    21:00 +33°C° 0 mm 11 mps 728 mmHg 17%
    22:00 +31°C° 0 mm 11 mps 728 mmHg 20%
    23:00 +29°C° 0 mm 12 mps 729 mmHg 19%

    21 January, Monday

    Time Temperature Precipitation Wind Pressure Humidity
    00:00 +27°C° 0 mm 12 mps 729 mmHg 17%
    01:00 +26°C° 0 mm 12 mps 729 mmHg 15%
    02:00 +24°C° 0 mm 11 mps 729 mmHg 18%
    03:00 +23°C° 0 mm 10 mps 730 mmHg 20%
    04:00 +23°C° 0 mm 10 mps 730 mmHg 23%
    05:00 +23°C° 0 mm 10 mps 731 mmHg 27%
    06:00 +23°C° 0 mm 10 mps 731 mmHg 32%
    07:00 +24°C° 0 mm 10 mps 732 mmHg 36%
    08:00 +26°C° 0 mm 9 mps 732 mmHg 30%
    09:00 +28°C° 0 mm 9 mps 731 mmHg 25%
    10:00 +29°C° 0 mm 8 mps 731 mmHg 20%
    11:00 +31°C° 0 mm 8 mps 731 mmHg 17%
    12:00 +33°C° 0 mm 7 mps 730 mmHg 14%
    13:00 +34°C° 0 mm 7 mps 730 mmHg 11%
    14:00 +35°C° 0 mm 6 mps 729 mmHg 10%
    15:00 +36°C° 0 mm 6 mps 729 mmHg 9%
    16:00 +36°C° 0 mm 5 mps 728 mmHg 7%
    17:00 +36°C° 0 mm 6 mps 728 mmHg 8%
    18:00 +35°C° 0 mm 7 mps 729 mmHg 9%
    19:00 +34°C° 0 mm 8 mps 729 mmHg 10%
    20:00 +32°C° 0 mm 8 mps 729 mmHg 13%
    21:00 +29°C° 0 mm 8 mps 730 mmHg 16%
    22:00 +27°C° 0 mm 9 mps 730 mmHg 19%
    23:00 +26°C° 0 mm 8 mps 730 mmHg 21%
    Show more